Regional Weather Roundup
Issued by NWS Portland, ME

Home | Current Version | Previous Version | Text Only | Print | Product List | Glossary On
Versions: 1 2 3 4 5 6 7 8 9 10 11 12 13 14 15 16 17 18 19 20 21 22 23 24 25 26 27 28 29 30 31 32 33 34 35 36 37 38 39 40 41 42 43 44 45 46 47 48 49 50
000
ASUS41 KGYX 032110
RWRGYX
WEATHER ROUNDUP FOR MAINE AND NEW HAMPSHIRE
NATIONAL WEATHER SERVICE GRAY ME
500 PM EDT MON AUG 03 2015

MEZ002-005-006-010-012-015-018-020-021-024-026-027-029-032200-
MAINE

CITY           SKY/WX    TMP DP  RH WIND       PRES   REMARKS
PORTLAND       MOSUNNY   78  64  61 S14G23    29.73F
SANFORD        SUNNY     84  63  48 S8G17     29.74S
BAR HARBOR     SUNNY     73  70  88 SW15      29.80S
WISCASSET      SUNNY     80  63  55 S12G20    29.76F
ROCKLAND       SUNNY     70  64  83 S10G16    29.76F
FRYEBURG       MOSUNNY   88  67  49 S10       29.70F HX  91
LEWISTONAUBURN SUNNY     82  63  51 S16G23    29.72F
AUGUSTA        SUNNY     81  62  52 S9G20     29.74F
WATERVILLE     SUNNY     82  63  51 S13G22    29.70F
BANGOR         MOSUNNY   80  63  55 S16G26    29.75F
GREENVILLE       N/A     77  64  64 S10G20    29.73S
MILLINOCKET    SUNNY     83  62  49 S13G24    29.72S
HOULTON        SUNNY     84  59  42 S13G25    29.70S
PRESQUE ISLE   PTSUNNY   75  55  50 NW12      29.71R
FRENCHVILLE    CLOUDY    64  61  90 S14       29.72R
CARIBOU        CLOUDY    67  57  70 SW7       29.72R THUNDER
$$

NHZ002-005-008-009-011-012-014-032200-
NEW HAMPSHIRE

CITY           SKY/WX    TMP DP  RH WIND       PRES   REMARKS
PORTSMOUTH     MOSUNNY   86  63  45 S9G18     29.71F
ROCHESTER      MOSUNNY   88  62  41 S9        29.72S
NASHUA         MOSUNNY   89  63  41 S9        29.74S HX  90
MANCHESTER     PTSUNNY   89  61  38 S16G25    29.71F
CONCORD        MOSUNNY   89  59  36 S17       29.71F
LACONIA        MOSUNNY   88  61  40 S13       29.69F
PLYMOUTH       FAIR      84  67  56 S3        29.69S
BERLIN         TSTM      76  63  64 VRB3      29.72S
WHITEFIELD     CLOUDY    73  65  75 CALM      29.72S
JAFFREY        MOSUNNY   83  61  47 S13       29.77F
KEENE          MOSUNNY   84  61  45 S12       29.73S
LEBANON        PTSUNNY   85  63  47 S12       29.68F
MT WASHINGTON  HAIL      55  55 100 S22G30      N/A  VSB 3/16
$$

VTZ005-007-008-032200-
VERMONT

CITY           SKY/WX    TMP DP  RH WIND       PRES   REMARKS
ST JOHNSBURY     N/A     83  62  49 MISG      29.67F
MONTPELIER     CLOUDY    76  62  62 VRB6      29.77S
BURLINGTON     PTSUNNY   83  63  50 VRB7      29.68F
$$

MAZ007-012-024-CTZ003-RIZ002-NYZ038-NYZ072-032200-
SOUTHERN NEW ENGLAND AND NY

CITY           SKY/WX    TMP DP  RH WIND       PRES   REMARKS
BOSTON         MOSUNNY   86  64  47 S18       29.75F
WORCESTER      MOSUNNY   82  57  42 S12G22    29.80F
NANTUCKET      SUNNY     77  69  76 S16       29.85S
PROVIDENCE     MOSUNNY   85  60  42 S20       29.80F
HARTFORD       PTSUNNY   88  62  41 SW15      29.74S
ALBANY         PTSUNNY   81  67  62 E5        29.73F
NEW YORK CITY  MOSUNNY   90  64  42 S17G25    29.76F HX  91
$$

ANZ081-ANZ082-ANZ150-NHZ014-MEZ023>029-032200-
COASTAL MARINE OBSERVATIONS

STATION/POSITION TIME  TEMP    WIND        PRES    WAVE
                       AIR SEA DIR/SP/G            HT/PER
                 (UTC) (F)     (DEG/KT/KT) (MB)    (FT/S)
MOUNT DESERT ROC 2100   64     150/ 19/ 19 1009.5F
MATINICUS ROCK   2000   65     170/ 18/ 19 1009.1F
ISLE OF SHOALS   2000   73     160/ 25/ 27 1006.5F
JEFFREYS LEDGE   2003      66                N/A     3/ 4
CASHES LEDGE BUO 2050   70                 1008.6F   3/ 4
GEORGES BANK BUO 2050   73 67  180/  8/ 10 1013.6F   6/ 8
$$

.............KEY..............
   WCI - WIND CHILL
   TC  - TEMPERATURE IN CELSIUS
   VSB - VISIBILITY IN MILES
   HX  - HEAT INDEX
   FAIR- INDICATES FEW OR NO CLOUDS BELOW 12,000 FT, WITH NO
         SIGNIFICANT WEATHER AND/OR OBSTRUCTIONS TO VISIBILITY.




USA.gov is the U.S. government's official web portal to all federal, state and local government web resources and services.